Погода в Березино

Беларусь     53°50′04″N   28°59′39″E
темп.,
°C
ветер,
м/с
пор.,
м/с
влажн.,
%
обл.,
%
осадки,
мм/ч
давл.,
гПа
погр.,
м
21 апреля, ср
ср2100:00+5ссв2491100 0.0 1011262
03:00+5с2391100 0.0 1010165
06:00+4сз2491100 0.0 1010173
09:00+5зсз2380100 0.0 1010224
12:00+10з4557100 0.0 10091595
15:00+10юз456687 0.1 10081102
18:00+10юз4671100 0.4 1008871
21:00+8ююз3791100 1.3 1009183
22 апреля, чт
чт2200:00+6юз36875 0.1 1009100
03:00+5ююз379292 0.1 1010113
06:00+6ююз369264 0.0 1009128
09:00+10ююз467911 0.0 1010344
12:00+14юз79585 1.4 10091486
15:00+14юз695598 2.1 10091810
18:00+11з5773100 1.3 1010913
21:00+7юз2284100 1.3 101128
23 апреля, пт
пт2300:00+5юз3972100 0.1 1012215
03:00+4юз4978100 0.1 1012386
06:00+2юз49834 0.0 1012337
09:00+5зюз577025 0.0 10131051
12:00+6зюз5757100 0.1 10131465
15:00+6з675787 0.3 10141449
18:00+7зюз465474 0.0 10141483
21:00+3зюз2380100 0.6 101449
24 апреля, сб
сб2400:00+1з23787 0.0 101436
03:000зсз348265 0.0 101362
06:00+1зсз3783100 0.0 1013227
09:00+3з566999 0.0 1013876
12:00+5з6759100 0.1 10131593
15:00+6з685799 0.4 10131613
18:00+6зсз686097 0.3 10131350
21:00+3зсз497940 0.4 1014290
25 апреля, вс
вс2500:00+1зюз4109026 0.0 1014267
03:00−1зюз5128618 0.0 1014380
06:00−1зюз6129297 0.0 1013523
09:00+3з797693 0.1 10121023
12:00+4з7968100 0.3 10121160
15:00+6з71056100 0.9 10121721
18:00+5з71064100 0.4 10111418
21:00+2з5118324 0.6 1012516